CW0762 Weather Reports


Display with metric or nautical units.
time (UTC)temp
F
wind
direction
speed
MPH
gust
MPH
rain 1hr
in
rain 24hr
in
rain mn
in
humidity
%
barometer
mb
20260506134542 54 283 0.0 4.0 0.00 0.00 0.00 84 1015.1
20260506133044 53 283 0.0 3.0 0.00 0.00 0.00 84 1014.8
20260506131546 53 261 1.0 6.0 0.00 0.00 0.00 83 1014.6
20260506130038 53 266 1.0 6.0 0.00 0.00 0.00 82 1014.5
20260506124536 53 267 0.0 5.0 0.00 0.00 0.00 81 1014.4
20260506123034 54 275 1.0 7.0 0.00 0.00 0.00 81 1014.3
20260506121531 54 315 0.0 2.0 0.00 0.00 0.00 80 1014.1
20260506120029 54 268 0.0 4.0 0.00 0.00 0.00 78 1013.9
20260506114529 55 285 0.0 3.0 0.00 0.00 0.00 76 1013.6
20260506113036 55 273 0.0 5.0 0.00 0.00 0.00 77 1013.5
20260506111522 55 271 2.0 7.0 0.00 0.00 0.00 76 1013.0
20260506110020 56 277 1.0 5.0 0.00 0.00 0.00 75 1012.9
20260506104517 56 283 2.0 7.0 0.00 0.00 0.00 75 1012.6
20260506103016 56 280 2.0 9.0 0.00 0.00 0.00 75 1012.4
20260506101513 56 280 0.0 5.0 0.00 0.00 0.00 75 1012.1
20260506100012 57 265 0.0 6.0 0.00 0.00 0.00 75 1011.9
20260506094509 57 273 2.0 6.0 0.00 0.00 0.00 74 1011.7
20260506093007 57 263 0.0 4.0 0.00 0.00 0.00 75 1011.5
20260506091506 58 271 0.0 2.0 0.00 0.00 0.00 76 1011.5
20260506090005 58 281 1.0 4.0 0.00 0.00 0.00 76 1011.3
20260506084502 58 294 1.0 4.0 0.00 0.00 0.00 76 1011.2
20260506083002 58 261 1.0 4.0 0.00 0.00 0.00 76 1011.1
20260506081603 58 282 1.0 5.0 0.00 0.00 0.00 76 1011.1
20260506080107 58 275 0.0 4.0 0.00 0.00 0.00 76 1011.0
20260506073055 59 262 0.0 3.0 0.00 0.00 0.00 77 1010.5
20260506071602 59 243 0.0 5.0 0.00 0.00 0.00 77 1010.6
20260506061546 60 276 1.0 4.0 0.00 0.00 0.00 78 1010.6
20260506044538 62 277 1.0 5.0 0.00 0.00 0.00 77 1010.5
20260506043035 63 292 0.0 9.0 0.00 0.00 0.00 77 1010.5
20260506041531 63 227 1.0 7.0 0.00 0.00 0.00 76 1010.4
20260506040029 64 286 0.0 6.0 0.00 0.00 0.00 76 1010.3
20260506034530 65 268 1.0 7.0 0.00 0.00 0.00 76 1009.7
20260506033022 65 266 0.0 4.0 0.00 0.00 0.00 75 1009.5
20260506031520 66 265 0.0 9.0 0.00 0.00 0.00 75 1009.3
20260506030031 68 269 2.0 6.0 0.00 0.00 0.00 74 1009.1
20260506024530 68 284 0.0 6.0 0.00 0.00 0.00 74 1008.9
20260506023013 69 287 1.0 4.0 0.00 0.00 0.00 73 1008.5
20260506021508 69 281 0.0 3.0 0.00 0.00 0.00 72 1007.9
20260506020007 69 283 0.0 4.0 0.00 0.00 0.00 71 1007.7
20260506014502 70 278 0.0 2.0 0.00 0.00 0.00 70 1007.2
20260506013002 70 275 0.0 5.0 0.00 0.00 0.00 68 1007.1
20260506011610 71 279 0.0 3.0 0.00 0.00 0.00 68 1007.1
20260506010059 72 262 2.0 6.0 0.00 0.00 0.00 67 1006.7
20260506004556 73 274 0.0 5.0 0.00 0.00 0.00 65 1006.6
20260506003057 74 286 1.0 4.0 0.00 0.00 0.00 65 1006.1
20260506001555 75 264 1.0 6.0 0.00 0.00 0.00 64 1005.5
20260506000055 76 355 0.0 4.0 0.00 0.00 0.00 64 1005.7
20260505234556 78 230 1.0 5.0 0.00 0.00 0.00 62 1005.5
20260505233053 79 360 0.0 3.0 0.00 0.00 0.00 61 1005.2
20260505231553 81 303 0.0 5.0 0.00 0.00 0.00 60 1005.1
20260505224553 83 63 0.0 3.0 0.00 0.00 0.00 55 1004.5
20260505223106 85 290 0.0 3.0 0.00 0.00 0.00 53 1004.5
20260505221551 86 5 0.0 4.0 0.00 0.00 0.00 47 1004.2
20260505220051 87 288 0.0 6.0 0.00 0.00 0.00 48 1004.0
20260505214550 89 281 1.0 6.0 0.00 0.00 0.00 45 1004.2
20260505213057 91 119 2.0 7.0 0.00 0.00 0.00 47 1003.9
20260505211550 91 80 0.0 4.0 0.00 0.00 0.00 48 1004.2
20260505210047 90 109 2.0 12.0 0.00 0.00 0.00 48 1004.2
20260505204545 90 118 3.0 11.0 0.00 0.00 0.00 50 1004.4
20260505203051 90 119 3.0 9.0 0.00 0.00 0.00 52 1004.5
20260505201543 90 114 5.0 10.0 0.00 0.00 0.00 50 1004.8
20260505200039 88 118 1.0 9.0 0.00 0.00 0.00 56 1004.9
20260505194537 87 120 4.0 8.0 0.00 0.00 0.00 57 1004.9
20260505193035 87 131 3.0 11.0 0.00 0.00 0.00 59 1005.2
20260505191532 86 137 3.0 9.0 0.00 0.00 0.00 61 1004.9
20260505190033 85 156 2.0 10.0 0.00 0.00 0.00 63 1005.0
20260505184526 83 145 4.0 11.0 0.00 0.00 0.00 64 1005.0
20260505183025 83 43 4.0 12.0 0.00 0.00 0.00 65 1005.3
20260505181523 83 125 3.0 8.0 0.00 0.00 0.00 66 1005.1
20260505180022 83 134 3.0 11.0 0.00 0.00 0.00 65 1005.3
20260505174521 82 122 3.0 10.0 0.00 0.00 0.00 66 1005.2
20260505173035 82 49 2.0 9.0 0.00 0.00 0.00 69 1005.1
20260505171516 81 135 2.0 13.0 0.00 0.00 0.00 70 1005.2
20260505170022 80 55 3.0 10.0 0.00 0.00 0.00 71 1005.4
20260505164527 79 112 3.0 12.0 0.00 0.00 0.00 71 1005.3
20260505163013 79 133 4.0 9.0 0.00 0.00 0.00 73 1005.1
20260505161506 78 30 2.0 13.0 0.00 0.00 0.00 75 1005.0
20260505153115 76 133 3.0 10.0 0.00 0.00 0.00 78 1005.1
20260505151601 76 126 2.0 9.0 0.00 0.00 0.00 79 1004.9